Вернуться в каталог

COSMOS 1375 DEB

АктивенLEO
NORAD 16376·DEBRIS·🇷🇺 Russia

Запущен Jun 6, 1982 с Plesetsk Cosmodrome

Loading…

Ближайшие Пролёты (ближайшие 24 часа)

TLE

СвежийSource: Space-Track

Эпоха: Sep 14, 2026, 18:46 UTC

1 16376U 82055Q   26257.78209375  .00000391  00000-0  34256-3 0  9992
2 16376  65.8256  75.9860 0019953 343.2011  31.0188 13.96659146 72441

Отслеживайте COSMOS 1375 DEB в реальном времени с AllMySat

Download on the App Store